Probability
5 6 8 9 9 8 6 4 2 1 2 3 3 3 3 3 3 3 4 5 3 2 1 0 0 1 2 2 2 2 2 2 1 0 0 1 1 0 0 0 1 1 1
7 8 9 10 10 9 9 7 6 4 4 4 4 4 4 3 3 3 3 3 2 1 0 0 0 0 1 1 1 1 2 3 2 1 0 1 2 1 1 1 0 1 1
11 12 12 11 11 12 13 13 11 8 7 7 7 6 5 4 4 4 3 2 2 1 0 0 0 0 0 0 1 1 2 4 4 2 1 2 3 3 3 2 1 1 1
15 16 16 14 14 15 17 17 15 12 10 9 9 8 7 6 6 5 4 3 3 2 1 1 1 1 1 1 1 2 3 5 6 4 4 5 5 5 4 4 3 3 3
17 18 18 18 17 17 18 18 17 15 14 12 10 8 7 6 7 6 5 3 3 3 3 2 3 3 3 2 2 3 4 5 6 6 7 7 7 6 6 6 5 5 5
18 19 19 20 21 19 18 18 18 18 17 14 11 8 7 6 7 7 6 4 3 3 3 3 4 5 5 5 6 6 5 6 7 7 7 7 7 7 7 6 5 5 5
20 20 20 21 23 22 19 19 19 19 17 15 11 8 6 6 6 7 7 5 4 4 4 4 5 7 8 8 8 7 7 7 9 9 8 7 7 7 7 5 4 4 5
22 22 21 21 22 22 21 21 20 18 16 16 14 11 7 5 6 6 6 6 6 7 7 6 7 8 9 9 9 8 8 8 10 11 9 8 7 6 5 4 3 4 5
20 21 21 22 21 20 20 20 19 17 15 16 17 14 10 8 8 7 6 5 7 9 9 9 9 9 10 10 10 8 7 7 9 10 10 8 6 4 4 4 5 5 5
16 18 21 24 23 20 18 17 16 16 15 15 16 15 14 12 11 9 7 6 7 10 10 10 10 10 10 12 11 8 5 4 5 8 9 8 5 3 3 4 5 5 4
17 18 20 24 24 22 19 17 18 18 15 13 13 14 14 14 13 11 9 8 9 11 11 12 11 10 10 10 9 6 4 3 4 5 7 6 4 2 2 3 4 5 5
20 19 19 22 24 24 23 21 20 19 16 14 13 14 13 12 12 11 10 10 10 11 12 12 10 8 7 7 6 5 3 3 3 3 4 4 3 2 2 3 4 5 6
22 20 19 20 22 24 24 23 21 19 17 15 14 14 13 11 11 11 10 9 8 8 8 9 8 6 6 6 5 4 3 3 3 3 2 2 1 2 3 3 3 3 4
19 18 18 19 20 21 22 23 22 20 18 16 14 13 12 11 10 10 9 8 7 6 5 5 6 5 6 7 7 6 4 4 3 2 1 0 0 1 1 2 1 1 1
16 16 17 17 19 20 20 21 22 21 20 17 15 14 13 11 11 10 9 8 6 4 4 4 5 6 6 7 7 6 6 4 2 1 0 0 0 0 0 0 0 0 0
15 15 14 15 17 18 19 20 21 20 19 18 17 16 14 12 11 10 8 7 6 4 4 4 5 5 6 7 6 6 6 4 2 0 0 0 0 0 0 0 0 0 0
15 14 12 12 13 15 17 18 17 16 15 16 17 17 17 16 14 12 9 8 6 5 4 4 4 4 6 7 6 5 5 4 2 1 0 0 0 0 0 0 0 0 0
16 13 10 10 11 13 15 15 14 13 13 15 17 18 19 18 17 16 13 11 9 7 6 5 4 3 4 6 6 5 4 4 3 1 0 0 0 0 0 0 0 0 0
18 14 11 11 11 11 12 13 13 14 15 15 16 17 18 18 18 18 16 13 11 9 8 6 4 3 3 4 4 4 4 3 2 1 0 0 0 0 0 0 0 0 0
18 17 15 14 13 11 10 11 12 14 15 15 14 14 14 14 15 15 14 13 12 10 7 5 3 3 3 4 5 4 3 2 1 1 1 1 1 1 0 0 0 0 0
19 19 18 17 15 11 7 7 9 11 13 13 13 12 12 10 10 10 10 10 11 9 7 4 3 3 4 5 6 5 3 1 0 1 2 2 2 2 2 1 0 0 0
22 21 19 18 16 10 4 3 5 8 10 11 11 11 10 8 6 6 5 5 6 6 6 5 5 4 5 6 5 4 3 2 1 1 3 4 4 4 5 3 1 0 0
23 21 19 18 16 10 3 0 2 6 9 10 11 10 9 7 6 5 4 3 3 3 4 5 5 5 5 4 4 3 3 3 2 1 2 4 4 4 4 3 1 0 0
21 20 19 18 16 10 3 0 1 5 9 10 10 10 9 8 7 6 5 5 4 3 2 3 3 3 3 3 3 3 3 3 3 1 1 1 2 2 2 2 1 0 0
20 18 17 15 14 10 4 0 1 6 9 10 10 10 9 8 6 5 7 7 6 4 3 1 1 1 1 1 2 3 3 3 3 2 1 0 1 2 1 1 1 0 0
18 17 14 12 12 10 4 0 2 6 10 11 10 9 7 6 4 4 7 8 6 5 4 2 1 0 0 0 1 3 3 3 3 2 1 1 1 2 1 1 1 1 0
Wind_Speed
3 3 2 2 2 2 3 2 2 2 2 2 2 2 2 2 2 2 3 6 5 5 6 7 8 8 8 9 9 9 9 9 9 9 9 8 8 8 8 8 8 8 7
3 3 3 3 2 3 2 2 2 2 2 1 2 2 3 2 2 2 2 5 7 6 6 6 8 8 8 8 9 10 10 9 9 9 9 9 9 8 8 8 8 8 8
4 3 3 4 3 3 3 3 3 2 2 3 3 3 3 3 2 3 3 2 4 7 7 7 7 8 9 8 8 9 9 9 9 9 9 10 9 9 9 9 9 9 8
5 4 4 4 3 4 3 3 3 3 2 3 2 2 2 2 3 3 3 3 2 3 7 8 7 8 9 9 9 9 9 9 9 9 10 10 10 10 10 10 9 9 9
6 5 4 3 4 4 3 3 3 3 3 3 2 2 2 3 3 4 3 3 3 3 3 7 9 9 10 9 9 9 9 9 9 10 10 10 10 10 10 10 10 10 9
6 5 4 5 5 4 3 3 3 3 3 3 3 2 3 3 3 3 4 3 3 4 4 4 5 7 10 9 9 10 9 9 9 10 10 10 9 9 10 11 11 11 10
6 5 4 4 5 4 4 4 4 5 4 3 3 3 3 3 3 3 3 3 3 4 4 4 4 3 5 11 10 9 9 10 10 10 10 10 9 8 9 9 10 10 10
6 6 5 5 5 3 4 4 4 4 3 3 3 3 3 4 4 3 3 3 3 3 4 5 4 4 4 3 6 10 8 8 9 10 9 9 9 9 9 9 10 10 10
6 5 5 5 4 5 4 4 4 5 4 3 3 3 3 2 1 3 3 3 3 2 3 3 5 5 5 4 3 7 7 7 7 8 8 9 9 9 10 10 10 10 10
6 6 6 6 5 4 4 5 5 4 4 4 3 3 3 4 4 2 3 3 3 3 3 4 4 4 5 4 3 3 5 6 7 7 7 8 9 9 9 10 10 10 10
7 6 6 5 5 5 5 4 4 5 4 4 3 3 3 3 5 4 3 3 3 3 3 3 3 3 3 4 4 4 6 6 7 7 7 7 8 9 9 10 10 10 10
6 7 7 6 6 5 5 5 5 6 4 4 4 3 3 3 3 4 4 4 4 3 2 2 3 3 3 4 3 3 5 6 6 6 7 7 8 9 9 10 10 11 11
4 6 6 6 5 5 5 5 5 5 5 5 5 4 4 4 3 4 4 4 4 3 2 4 3 3 3 3 2 3 5 6 6 6 7 7 8 8 8 9 10 10 10
3 4 5 5 6 6 6 5 5 5 4 5 5 5 4 4 4 4 4 4 5 4 3 3 2 3 2 3 1 5 5 7 7 7 7 7 7 8 8 8 9 9 9
3 4 5 5 5 5 5 5 4 5 5 5 6 6 5 4 4 4 4 5 5 6 4 3 3 2 3 3 2 4 4 6 8 8 7 7 7 7 7 7 7 8 8
3 4 5 5 5 6 6 6 5 5 5 5 4 5 5 4 4 4 4 4 4 5 5 3 3 3 2 3 2 4 4 5 8 8 8 7 7 7 7 8 7 7 7
4 5 5 5 5 5 6 6 6 6 6 5 5 5 5 5 4 3 4 4 4 4 5 4 3 2 3 5 3 4 5 5 5 9 8 8 7 8 8 8 7 7 7
5 5 5 5 5 5 5 6 7 6 6 6 5 5 5 4 5 4 3 4 4 4 5 6 4 4 4 4 4 5 5 4 4 7 9 9 9 8 8 8 8 8 8
4 4 5 5 5 5 5 5 5 5 6 6 5 5 5 5 5 4 5 4 4 4 4 5 5 3 3 3 4 5 5 4 5 5 9 9 9 9 8 9 9 9 9
5 5 4 4 4 5 5 5 5 5 5 5 4 5 5 5 5 5 5 5 5 5 4 5 5 4 3 3 4 5 4 4 4 5 4 5 8 10 10 10 10 10 10
5 5 5 5 4 4 3 4 4 5 4 4 4 4 4 4 3 4 4 4 4 4 4 4 5 4 3 3 3 4 4 4 4 4 4 5 5 6 7 10 12 11 10
5 5 5 5 5 3 2 1 4 4 5 5 4 4 5 5 5 5 4 4 5 5 5 5 5 4 4 4 3 4 5 5 5 3 4 5 5 5 5 6 8 10 11
6 5 5 6 5 4 3 3 4 5 5 4 4 4 5 3 5 5 6 7 7 7 7 7 7 6 5 4 5 6 5 6 6 5 5 6 5 5 5 5 7 9 10
5 5 6 6 5 5 5 4 5 6 4 4 5 5 5 4 3 4 5 5 5 5 6 7 6 6 5 4 5 6 6 6 7 6 5 6 5 5 5 5 7 9 10
5 6 6 6 6 5 6 6 5 5 4 5 5 4 5 4 2 3 5 5 5 5 6 7 6 6 5 5 5 5 5 6 6 5 4 5 6 6 6 6 5 10 10
5 5 5 5 6 5 6 7 7 5 4 4 4 5 4 4 3 4 6 6 6 6 5 5 6 7 7 7 8 7 6 6 6 6 3 4 5 5 6 5 4 4 7
Wind_Direction
185 171 166 180 190 166 175 186 169 158 198 215 241 237 247 247 241 224 145 155 179 205 219 216 207 207 207 203 201 197 193 194 196 198 199 200 198 197 196 194 193 190 190
185 189 183 191 192 189 182 199 181 193 216 221 236 239 254 256 246 243 214 168 181 202 214 213 207 205 210 208 206 202 201 200 201 204 203 204 201 199 199 199 198 195 194
190 198 193 199 195 189 186 202 199 213 219 220 225 242 248 261 256 250 246 223 189 190 201 205 204 206 213 213 212 208 206 204 207 211 209 207 204 201 199 201 201 199 197
205 211 206 203 198 204 204 199 220 221 221 236 227 239 244 245 249 247 242 232 230 203 187 193 201 207 214 215 216 216 213 208 209 216 217 212 209 206 205 203 203 200 201
210 215 216 206 212 212 215 221 199 233 228 242 240 226 242 244 243 239 243 238 232 242 221 178 195 208 217 218 216 216 216 213 211 215 219 217 213 211 209 205 202 202 202
207 220 211 208 218 217 216 222 220 226 241 243 252 242 241 241 241 236 243 226 222 229 235 221 206 201 203 210 213 217 218 216 214 216 219 216 212 212 211 207 206 205 206
202 217 222 201 221 217 223 222 226 215 223 230 240 232 220 221 229 237 242 238 221 223 226 229 240 239 200 198 207 213 219 221 218 219 218 215 212 212 212 210 210 207 207
207 210 222 216 209 209 211 222 227 239 224 219 248 248 229 202 205 218 226 220 233 233 224 222 230 236 253 226 182 196 212 220 220 220 217 216 214 211 212 214 216 212 206
209 219 216 227 213 216 199 209 218 233 233 217 237 262 270 267 229 182 212 222 223 234 235 228 227 230 238 239 219 186 198 211 219 222 221 217 215 213 215 217 219 216 212
207 209 213 213 219 219 206 213 206 227 237 230 214 240 273 311 288 243 207 208 219 233 242 248 238 226 236 236 213 183 186 206 219 224 220 217 215 213 215 219 220 219 217
204 208 210 208 210 220 214 220 206 229 229 240 236 230 233 236 259 269 267 261 242 236 235 243 252 250 246 244 236 202 187 202 216 223 223 222 221 219 218 219 220 221 220
200 204 207 208 210 216 215 218 217 218 234 240 250 248 245 248 251 263 267 265 267 261 254 251 243 241 245 250 246 149 186 201 209 217 220 223 227 226 224 224 224 223 222
197 200 207 209 212 212 215 216 215 226 224 227 237 249 255 262 269 272 274 276 278 272 252 248 238 237 245 249 223 171 197 203 212 217 218 221 224 228 230 228 227 225 224
207 193 204 206 213 212 212 211 218 217 220 227 234 245 254 256 262 259 266 273 269 259 245 248 249 232 248 248 169 219 212 196 210 220 222 223 222 222 224 227 229 229 227
199 193 200 206 210 213 218 215 220 218 219 226 231 230 245 245 250 257 257 263 273 275 263 239 245 232 241 242 207 244 240 189 204 216 219 220 221 222 223 225 229 230 226
205 199 205 208 211 214 219 224 223 218 222 229 240 249 253 256 254 255 261 261 265 274 280 264 257 253 265 270 203 251 251 185 200 207 211 213 215 218 222 221 223 220 223
201 202 207 208 210 215 217 218 228 222 224 232 239 241 244 261 261 258 255 261 262 263 267 275 273 268 258 269 267 260 249 241 210 191 201 206 211 215 218 218 220 222 224
202 204 207 210 213 215 218 219 224 226 228 233 239 245 248 243 242 254 258 257 261 268 266 270 271 269 260 258 260 263 262 255 254 181 192 203 210 213 213 218 224 226 228
206 208 209 210 214 216 216 222 229 230 229 232 237 242 244 243 245 247 250 258 260 257 260 267 269 271 272 272 267 261 260 262 263 203 192 200 205 208 213 219 225 227 229
205 209 209 213 218 220 221 224 228 232 234 237 238 238 239 239 244 246 244 248 256 262 258 263 269 266 262 261 260 261 260 248 258 255 227 214 202 205 214 216 220 224 228
204 206 210 213 218 217 218 227 230 227 232 233 233 235 232 234 252 257 263 259 256 256 255 257 261 263 264 271 266 276 277 273 255 252 248 239 220 223 216 215 216 219 224
207 207 212 213 215 211 157 226 256 235 231 235 238 238 227 210 212 214 239 256 266 260 264 266 265 268 271 272 276 279 282 279 277 256 261 259 245 242 236 233 201 204 217
206 210 213 215 215 189 162 198 246 247 235 235 237 242 245 220 217 223 214 217 230 239 251 263 272 280 281 282 284 276 276 285 290 293 275 270 260 255 249 234 187 202 216
209 211 214 214 213 188 173 197 230 232 234 229 229 233 237 237 229 243 238 230 235 233 235 243 260 269 277 288 276 274 282 274 269 261 259 267 269 268 266 255 191 201 213
216 216 213 214 214 195 175 189 223 223 222 229 229 230 239 233 187 241 244 240 244 245 225 225 241 255 268 266 269 268 264 265 268 266 251 261 272 273 264 255 216 196 210
219 219 215 215 216 212 176 185 217 228 220 231 223 216 211 227 187 223 242 246 250 258 262 231 222 230 237 232 224 241 257 264 273 273 256 258 265 271 266 251 245 214 215